Погода в Корсакове

Россия / Сахалинская область     46°38′05″N   142°46′57″E
темп.,
°C
ветер,
м/с
пор.,
м/с
влажн.,
%
обл.,
%
осадки,
мм/ч
давл.,
гПа
погр.,
м
28 июня, вт
вт2823:00+13юз2286100 0.0 100770
02:00+13зсз3783100 0.0 1007211
05:00+11сз24874 0.0 100794
08:00+13з24830 0.0 1008207
11:00+19зсз346927 0.0 1007677
14:00+19ю4370100 0.0 1006723
17:00+19ю3370100 0.0 1005510
20:00+16юв2589100 0.0 1005186
29 июня, ср
ср2923:00+13ююв2398100 0.0 100568
02:00+13юв1195100 0.0 100455
05:00+13ссв1296100 0.1 100372
08:00+13св3591100 0.1 1003232
11:00+16всв247392 0.1 1004593
14:00+18вюв226983 0.0 1004663
17:00+16вюв2475100 0.0 1006330
20:00+14ююв128398 0.0 1007162
30 июня, чт
чт3023:00+13юв118648 0.0 100960
02:00+10в119468 0.0 100925
05:00+11вюв1190100 0.0 101181
08:00+12юв118788 0.0 1013219
11:00+16юз1176100 0.0 1013597
14:00+15ю2280100 0.0 1014376
17:00+15ююз2378100 0.0 1014341
20:00+14ююз2384100 0.0 1015260
1 июля, пт
пт123:00+12ююз228949 0.0 101684
02:00+10ююз229711 0.0 101727
05:00+9ююз01967 0.0 101612
08:00+12ююз1188100 0.0 1017174
11:00+15ююз3476100 0.0 1016376
14:00+16ююз3572100 0.0 1015392
17:00+16ююз4574100 0.0 1014306
20:00+13ююз248691 0.0 1014186
2 июля, сб
сб223:00+11ююз2296100 0.0 101325
02:00+11ссз019749 0.0 101211
05:00+13зюз1195100 0.1 101130
08:00+15юз129691 0.0 1010118
11:00+17юз359094 0.0 1009391
14:00+20юз468398 0.0 1008482
17:00+22юз567649 0.0 1006561
20:00+19ююз46885 0.0 1006158